Time,TemperatureF,DewpointF,PressureIn,WindDirection,WindDirectionDegrees,WindSpeedMPH,WindSpeedGustMPH,Humidity,HourlyPrecipIn,Conditions,Clouds,dailyrainin,SoftwareType,DateUTC
2013-06-29 00:11:00,68.0,61.0,29.69,NW,314,0.0,0.0,77,0.00,,,0.00,,2013-06-29 05:11:00,
2013-06-29 00:21:00,68.0,61.0,29.69,NW,314,0.0,0.0,77,0.00,,,0.00,,2013-06-29 05:21:00,
2013-06-29 00:31:00,68.0,61.0,29.69,NW,314,0.0,0.0,77,0.00,,,0.00,,2013-06-29 05:31:00,
2013-06-29 00:41:00,66.0,60.0,29.69,West,278,0.0,0.0,81,0.00,,,0.00,,2013-06-29 05:41:00,
2013-06-29 00:51:00,66.0,60.0,29.69,West,278,0.0,0.0,81,0.00,,,0.00,,2013-06-29 05:51:00,
2013-06-29 01:01:00,66.0,60.0,29.68,NE,37,0.0,0.0,80,0.00,,,0.00,,2013-06-29 06:01:00,
2013-06-29 01:12:00,67.0,60.0,29.68,NNE,23,0.0,0.0,78,0.00,,,0.00,,2013-06-29 06:12:00,
2013-06-29 01:22:00,67.0,60.0,29.68,NNE,23,0.0,0.0,78,0.00,,,0.00,,2013-06-29 06:22:00,
2013-06-29 01:33:00,67.0,60.0,29.68,NNE,23,0.0,0.0,78,0.00,,,0.00,,2013-06-29 06:33:00,
2013-06-29 01:43:00,67.0,60.0,29.67,NE,46,0.0,0.0,79,0.00,,,0.00,,2013-06-29 06:43:00,
2013-06-29 01:53:00,67.0,60.0,29.67,NE,46,0.0,0.0,79,0.00,,,0.00,,2013-06-29 06:53:00,
2013-06-29 02:02:00,67.0,60.0,29.67,NE,46,0.0,0.0,79,0.00,,,0.00,,2013-06-29 07:02:00,
2013-06-29 02:12:00,67.0,60.0,29.67,NE,46,0.0,0.0,79,0.00,,,0.00,,2013-06-29 07:12:00,
2013-06-29 02:22:00,66.0,60.0,29.67,North,1,0.0,0.0,80,0.00,,,0.00,,2013-06-29 07:22:00,
2013-06-29 02:33:00,66.0,60.0,29.67,North,1,0.0,0.0,80,0.00,,,0.00,,2013-06-29 07:33:00,
2013-06-29 02:43:00,66.0,60.0,29.67,NE,53,0.0,0.0,81,0.00,,,0.00,,2013-06-29 07:43:00,
2013-06-29 02:53:00,65.0,59.0,29.67,NNE,15,0.0,0.0,82,0.00,,,0.00,,2013-06-29 07:53:00,
2013-06-29 03:01:00,65.0,59.0,29.67,NNE,15,0.0,0.0,82,0.00,,,0.00,,2013-06-29 08:01:00,
2013-06-29 03:12:00,65.0,60.0,29.67,NNW,335,2.0,8.0,83,0.00,,,0.00,,2013-06-29 08:12:00,
2013-06-29 03:22:00,64.0,59.0,29.67,NE,41,1.0,8.0,84,0.00,,,0.00,,2013-06-29 08:22:00,
2013-06-29 03:33:00,64.0,59.0,29.67,NE,41,1.0,8.0,84,0.00,,,0.00,,2013-06-29 08:33:00,
2013-06-29 03:43:00,64.0,59.0,29.67,NE,39,1.0,5.0,85,0.00,,,0.00,,2013-06-29 08:43:00,
2013-06-29 03:52:00,64.0,59.0,29.67,NE,39,1.0,5.0,85,0.00,,,0.00,,2013-06-29 08:52:00,
2013-06-29 04:02:00,63.0,59.0,29.67,ENE,58,1.0,4.0,86,0.00,,,0.00,,2013-06-29 09:02:00,
2013-06-29 04:12:00,63.0,59.0,29.67,ENE,58,1.0,4.0,86,0.00,,,0.00,,2013-06-29 09:12:00,
2013-06-29 04:22:00,62.0,58.0,29.67,NNE,26,1.0,4.0,88,0.00,,,0.00,,2013-06-29 09:22:00,
2013-06-29 04:33:00,62.0,58.0,29.67,NE,48,0.0,3.0,88,0.00,,,0.00,,2013-06-29 09:33:00,
2013-06-29 04:42:00,62.0,58.0,29.67,WSW,247,1.0,5.0,87,0.00,,,0.00,,2013-06-29 09:42:00,
2013-06-29 04:53:00,62.0,58.0,29.67,WSW,247,1.0,5.0,87,0.00,,,0.00,,2013-06-29 09:53:00,
2013-06-29 05:01:00,62.0,58.0,29.67,NNE,32,1.0,5.0,88,0.00,,,0.00,,2013-06-29 10:01:00,
2013-06-29 05:11:00,62.0,58.0,29.67,North,11,1.0,5.0,88,0.00,,,0.00,,2013-06-29 10:11:00,
2013-06-29 05:22:00,62.0,58.0,29.67,ENE,60,1.0,5.0,88,0.00,,,0.00,,2013-06-29 10:22:00,
2013-06-29 05:33:00,62.0,58.0,29.67,NW,322,2.0,6.0,88,0.00,,,0.00,,2013-06-29 10:33:00,
2013-06-29 05:43:00,62.0,58.0,29.67,NW,322,2.0,6.0,88,0.00,,,0.00,,2013-06-29 10:43:00,
2013-06-29 05:52:00,62.0,58.0,29.67,NW,322,2.0,6.0,88,0.00,,,0.00,,2013-06-29 10:52:00,
2013-06-29 06:02:00,63.0,59.0,29.67,NE,34,4.0,8.0,87,0.00,,,0.00,,2013-06-29 11:02:00,
2013-06-29 06:11:00,62.0,58.0,29.67,NNE,32,3.0,8.0,88,0.00,,,0.00,,2013-06-29 11:11:00,
2013-06-29 06:23:00,62.0,58.0,29.67,NNE,32,3.0,8.0,88,0.00,,,0.00,,2013-06-29 11:23:00,
2013-06-29 06:33:00,63.0,59.0,29.67,NNE,29,4.0,10.0,87,0.00,,,0.00,,2013-06-29 11:33:00,
2013-06-29 06:43:00,63.0,59.0,29.67,NNE,25,5.0,13.0,87,0.00,,,0.00,,2013-06-29 11:43:00,
2013-06-29 06:53:00,63.0,59.0,29.67,NNE,25,5.0,13.0,87,0.00,,,0.00,,2013-06-29 11:53:00,
2013-06-29 07:02:00,64.0,60.0,29.67,NNW,334,6.0,11.0,87,0.00,,,0.00,,2013-06-29 12:02:00,
2013-06-29 07:12:00,64.0,60.0,29.67,NNE,18,6.0,11.0,87,0.00,,,0.00,,2013-06-29 12:12:00,
2013-06-29 07:22:00,64.0,60.0,29.67,NNE,18,6.0,11.0,87,0.00,,,0.00,,2013-06-29 12:22:00,
2013-06-29 07:34:00,64.0,60.0,29.67,NNE,18,6.0,11.0,87,0.00,,,0.00,,2013-06-29 12:34:00,
2013-06-29 07:43:00,65.0,61.0,29.68,NNE,19,7.0,13.0,86,0.00,,,0.00,,2013-06-29 12:43:00,
2013-06-29 07:53:00,65.0,61.0,29.68,NNE,19,7.0,13.0,86,0.00,,,0.00,,2013-06-29 12:53:00,
2013-06-29 08:02:00,65.0,61.0,29.68,NNE,19,7.0,13.0,86,0.00,,,0.00,,2013-06-29 13:02:00,
2013-06-29 08:11:00,65.0,61.0,29.69,WNW,285,8.0,17.0,86,0.00,,,0.00,,2013-06-29 13:11:00,
2013-06-29 08:23:00,64.0,61.0,29.70,WSW,258,6.0,17.0,91,0.77,,,0.16,,2013-06-29 13:23:00,
2013-06-29 08:34:00,63.0,61.0,29.70,North,9,5.0,14.0,93,0.52,,,0.22,,2013-06-29 13:34:00,
2013-06-29 08:43:00,63.0,61.0,29.70,North,9,5.0,14.0,93,0.52,,,0.22,,2013-06-29 13:43:00,
2013-06-29 08:53:00,63.0,61.0,29.70,NE,47,2.0,13.0,94,0.11,,,0.33,,2013-06-29 13:53:00,
2013-06-29 09:02:00,63.0,62.0,29.71,NNW,344,1.0,9.0,95,0.10,,,0.35,,2013-06-29 14:02:00,
2013-06-29 09:12:00,63.0,62.0,29.71,East,101,1.0,7.0,95,0.05,,,0.35,,2013-06-29 14:12:00,
2013-06-29 09:23:00,64.0,63.0,29.71,North,357,1.0,7.0,95,0.00,,,0.35,,2013-06-29 14:23:00,
2013-06-29 09:34:00,64.0,62.0,29.71,ENE,61,2.0,9.0,94,0.00,,,0.35,,2013-06-29 14:34:00,
2013-06-29 09:44:00,64.0,62.0,29.71,ENE,61,2.0,9.0,94,0.00,,,0.35,,2013-06-29 14:44:00,
2013-06-29 09:53:00,66.0,63.0,29.72,NE,51,5.0,11.0,89,0.00,,,0.35,,2013-06-29 14:53:00,
2013-06-29 10:01:00,66.0,62.0,29.72,North,1,7.0,13.0,88,0.00,,,0.35,,2013-06-29 15:01:00,
2013-06-29 10:11:00,66.0,62.0,29.73,North,355,7.0,19.0,88,0.00,,,0.35,,2013-06-29 15:11:00,
2013-06-29 10:22:00,66.0,62.0,29.73,NE,51,4.0,19.0,88,0.00,,,0.35,,2013-06-29 15:22:00,
2013-06-29 10:33:00,67.0,63.0,29.73,ENE,60,5.0,13.0,86,0.00,,,0.35,,2013-06-29 15:33:00,
2013-06-29 10:42:00,67.0,63.0,29.73,ENE,60,5.0,13.0,86,0.00,,,0.35,,2013-06-29 15:42:00,
2013-06-29 10:53:00,68.0,63.0,29.73,NNE,32,6.0,19.0,83,0.00,,,0.35,,2013-06-29 15:53:00,
2013-06-29 11:02:00,68.0,63.0,29.73,NNE,32,6.0,19.0,83,0.00,,,0.35,,2013-06-29 16:02:00,
2013-06-29 11:12:00,68.0,63.0,29.73,NNE,32,6.0,19.0,83,0.00,,,0.35,,2013-06-29 16:12:00,
2013-06-29 11:22:00,69.0,62.0,29.74,NE,47,7.0,17.0,78,0.00,,,0.35,,2013-06-29 16:22:00,
2013-06-29 11:33:00,70.0,62.0,29.75,NE,55,6.0,17.0,76,0.00,,,0.35,,2013-06-29 16:33:00,
2013-06-29 11:43:00,70.0,62.0,29.75,NE,55,6.0,17.0,76,0.00,,,0.35,,2013-06-29 16:43:00,
2013-06-29 11:53:00,70.0,62.0,29.75,NE,55,6.0,17.0,76,0.00,,,0.35,,2013-06-29 16:53:00,
2013-06-29 12:01:00,70.0,62.0,29.75,NE,55,6.0,17.0,76,0.00,,,0.35,,2013-06-29 17:01:00,
2013-06-29 12:12:00,71.0,61.0,29.75,ENE,71,7.0,17.0,70,0.00,,,0.35,,2013-06-29 17:12:00,
2013-06-29 12:23:00,71.0,62.0,29.75,ENE,58,8.0,20.0,73,0.00,,,0.35,,2013-06-29 17:23:00,
2013-06-29 12:34:00,71.0,62.0,29.75,ENE,58,8.0,20.0,73,0.00,,,0.35,,2013-06-29 17:34:00,
2013-06-29 12:42:00,71.0,62.0,29.75,ENE,58,8.0,20.0,73,0.00,,,0.35,,2013-06-29 17:42:00,
2013-06-29 12:52:00,71.0,62.0,29.75,ENE,58,8.0,20.0,73,0.00,,,0.35,,2013-06-29 17:52:00,
2013-06-29 13:01:00,71.0,62.0,29.75,ENE,58,8.0,20.0,73,0.00,,,0.35,,2013-06-29 18:01:00,
2013-06-29 13:22:00,73.0,60.0,29.76,ENE,70,6.0,17.0,64,0.00,,,0.35,,2013-06-29 18:22:00,
2013-06-29 13:34:00,74.0,60.0,29.76,NE,53,9.0,17.0,62,0.00,,,0.35,,2013-06-29 18:34:00,
2013-06-29 13:43:00,73.0,58.0,29.76,NE,39,8.0,17.0,60,0.00,,,0.35,,2013-06-29 18:43:00,
2013-06-29 13:53:00,73.0,58.0,29.76,NE,39,8.0,17.0,60,0.00,,,0.35,,2013-06-29 18:53:00,
2013-06-29 14:01:00,73.0,58.0,29.76,NE,39,8.0,17.0,60,0.00,,,0.35,,2013-06-29 19:01:00,
2013-06-29 14:12:00,73.0,58.0,29.76,NE,39,8.0,17.0,60,0.00,,,0.35,,2013-06-29 19:12:00,
2013-06-29 14:22:00,73.0,58.0,29.76,NE,39,8.0,17.0,60,0.00,,,0.35,,2013-06-29 19:22:00,
2013-06-29 15:02:00,75.0,59.0,29.76,ENE,58,9.0,16.0,58,0.00,,,0.35,,2013-06-29 20:02:00,
2013-06-29 15:12:00,75.0,59.0,29.76,ENE,58,9.0,16.0,58,0.00,,,0.35,,2013-06-29 20:12:00,
2013-06-29 15:23:00,72.0,60.0,29.78,ENE,65,3.0,13.0,66,0.00,,,0.35,,2013-06-29 20:23:00,
2013-06-29 15:33:00,72.0,60.0,29.78,ENE,65,3.0,13.0,66,0.00,,,0.35,,2013-06-29 20:33:00,
2013-06-29 15:43:00,74.0,60.0,29.77,ENE,65,3.0,15.0,61,0.00,,,0.35,,2013-06-29 20:43:00,
2013-06-29 15:52:00,73.0,60.0,29.78,NE,36,6.0,15.0,64,0.00,,,0.35,,2013-06-29 20:52:00,
2013-06-29 16:02:00,75.0,61.0,29.78,NNE,26,5.0,13.0,61,0.00,,,0.35,,2013-06-29 21:02:00,
2013-06-29 16:11:00,75.0,61.0,29.78,NNE,26,5.0,13.0,61,0.00,,,0.35,,2013-06-29 21:11:00,
2013-06-29 16:22:00,74.0,57.0,29.78,NE,51,5.0,13.0,55,0.00,,,0.35,,2013-06-29 21:22:00,
2013-06-29 16:32:00,74.0,57.0,29.78,NE,51,5.0,13.0,55,0.00,,,0.35,,2013-06-29 21:32:00,
2013-06-29 16:42:00,74.0,57.0,29.78,NE,51,5.0,13.0,55,0.00,,,0.35,,2013-06-29 21:42:00,
2013-06-29 16:52:00,73.0,57.0,29.78,ENE,58,5.0,12.0,58,0.00,,,0.35,,2013-06-29 21:52:00,
2013-06-29 17:01:00,75.0,58.0,29.77,ENE,60,7.0,13.0,56,0.00,,,0.35,,2013-06-29 22:01:00,
2013-06-29 17:11:00,75.0,58.0,29.77,ENE,60,7.0,13.0,56,0.00,,,0.35,,2013-06-29 22:11:00,
2013-06-29 17:21:00,75.0,58.0,29.77,ENE,60,7.0,13.0,56,0.00,,,0.35,,2013-06-29 22:21:00,
2013-06-29 17:33:00,76.0,58.0,29.77,ENE,64,5.0,11.0,54,0.00,,,0.35,,2013-06-29 22:33:00,
2013-06-29 17:43:00,76.0,58.0,29.77,ENE,64,5.0,11.0,54,0.00,,,0.35,,2013-06-29 22:43:00,
2013-06-29 17:52:00,75.0,57.0,29.77,NE,51,8.0,16.0,54,0.00,,,0.35,,2013-06-29 22:52:00,
2013-06-29 17:53:00,76.0,57.0,29.77,ENE,63,7.0,16.0,52,0.00,,,0.35,,2013-06-29 22:53:00,
2013-06-29 18:02:00,76.0,58.0,29.77,NE,56,9.0,16.0,53,0.00,,,0.35,,2013-06-29 23:02:00,
2013-06-29 18:12:00,75.0,57.0,29.77,NE,51,8.0,16.0,54,0.00,,,0.35,,2013-06-29 23:12:00,
2013-06-29 18:23:00,75.0,57.0,29.77,NE,51,8.0,16.0,54,0.00,,,0.35,,2013-06-29 23:23:00,
2013-06-29 18:34:00,75.0,57.0,29.77,NE,51,8.0,16.0,54,0.00,,,0.35,,2013-06-29 23:34:00,
2013-06-29 18:43:00,75.0,57.0,29.77,NE,51,8.0,16.0,54,0.00,,,0.35,,2013-06-29 23:43:00,
2013-06-29 19:02:00,74.0,57.0,29.78,ENE,63,8.0,14.0,55,0.00,,,0.35,,2013-06-30 00:02:00,
2013-06-29 19:12:00,74.0,57.0,29.78,ENE,73,7.0,14.0,56,0.00,,,0.35,,2013-06-30 00:12:00,
2013-06-29 19:22:00,74.0,58.0,29.78,NE,54,6.0,16.0,57,0.00,,,0.35,,2013-06-30 00:22:00,
2013-06-29 19:33:00,74.0,57.0,29.78,NE,45,6.0,16.0,55,0.00,,,0.35,,2013-06-30 00:33:00,
2013-06-29 19:43:00,74.0,58.0,29.79,NE,53,6.0,13.0,57,0.00,,,0.35,,2013-06-30 00:43:00,
2013-06-29 19:52:00,74.0,58.0,29.79,NE,53,6.0,13.0,57,0.00,,,0.35,,2013-06-30 00:52:00,
2013-06-29 20:01:00,73.0,57.0,29.79,ENE,59,5.0,10.0,57,0.00,,,0.35,,2013-06-30 01:01:00,
2013-06-29 20:11:00,72.0,56.0,29.80,NE,56,5.0,10.0,58,0.00,,,0.35,,2013-06-30 01:11:00,
2013-06-29 20:22:00,72.0,56.0,29.80,NE,56,5.0,10.0,58,0.00,,,0.35,,2013-06-30 01:22:00,
2013-06-29 20:33:00,72.0,58.0,29.80,NE,40,4.0,9.0,61,0.00,,,0.35,,2013-06-30 01:33:00,
2013-06-29 20:44:00,71.0,58.0,29.80,NNW,340,2.0,8.0,63,0.00,,,0.35,,2013-06-30 01:44:00,
2013-06-29 20:53:00,71.0,59.0,29.80,NE,50,2.0,6.0,65,0.00,,,0.35,,2013-06-30 01:53:00,
2013-06-29 21:02:00,70.0,59.0,29.81,NE,56,2.0,6.0,67,0.00,,,0.35,,2013-06-30 02:02:00,
2013-06-29 21:11:00,70.0,59.0,29.81,NE,56,2.0,6.0,67,0.00,,,0.35,,2013-06-30 02:11:00,
2013-06-29 21:23:00,69.0,58.0,29.81,NE,47,3.0,7.0,68,0.00,,,0.35,,2013-06-30 02:23:00,
2013-06-29 21:33:00,69.0,58.0,29.81,NE,47,3.0,7.0,68,0.00,,,0.35,,2013-06-30 02:33:00,
2013-06-29 21:43:00,69.0,58.0,29.81,NE,47,3.0,7.0,68,0.00,,,0.35,,2013-06-30 02:43:00,
2013-06-29 21:53:00,68.0,57.0,29.83,NE,43,3.0,6.0,69,0.00,,,0.35,,2013-06-30 02:53:00,
2013-06-29 22:01:00,68.0,57.0,29.83,NE,43,3.0,6.0,69,0.00,,,0.35,,2013-06-30 03:01:00,
2013-06-29 22:12:00,68.0,56.0,29.83,NE,56,4.0,8.0,66,0.00,,,0.35,,2013-06-30 03:12:00,
2013-06-29 22:23:00,68.0,56.0,29.83,NE,56,4.0,8.0,66,0.00,,,0.35,,2013-06-30 03:23:00,
2013-06-29 22:33:00,67.0,54.0,29.84,NE,45,5.0,8.0,64,0.00,,,0.35,,2013-06-30 03:33:00,
2013-06-29 22:43:00,67.0,54.0,29.84,NE,56,4.0,7.0,64,0.00,,,0.35,,2013-06-30 03:43:00,
2013-06-29 22:53:00,67.0,54.0,29.84,NE,56,4.0,7.0,64,0.00,,,0.35,,2013-06-30 03:53:00,
2013-06-29 23:01:00,66.0,55.0,29.84,NE,56,2.0,4.0,67,0.00,,,0.35,,2013-06-30 04:01:00,
2013-06-29 23:12:00,65.0,55.0,29.84,NE,54,2.0,4.0,69,0.00,,,0.35,,2013-06-30 04:12:00,
2013-06-29 23:22:00,65.0,54.0,29.84,ENE,65,2.0,4.0,68,0.00,,,0.35,,2013-06-30 04:22:00,
2013-06-29 23:33:00,65.0,54.0,29.85,ENE,62,2.0,4.0,68,0.00,,,0.35,,2013-06-30 04:33:00,
2013-06-29 23:43:00,65.0,54.0,29.85,ENE,62,2.0,4.0,68,0.00,,,0.35,,2013-06-30 04:43:00,
2013-06-29 23:53:00,64.0,54.0,29.85,NE,46,1.0,3.0,71,0.00,,,0.35,,2013-06-30 04:53:00,